FLOCK 3P-31 (42049 NORAD) Tracking and Keplerian Element Data

This shows tracking and keplerian element data for the satellite.

Feedback or suggestion? Click here.




ElementValue
Catalog42049
NameFLOCK 3P-31
Epoch Orbit5414
Epoch Day46.16465028
Epoch Year2018
RAAN111.689
Inclination97.4659
Eccentricity0.00096
Argument of Perigee68.4538
Mean Anonmoly291.7721
Mean Motion15.2392669
Decay Rate3.871E-05
L11 42049U 17008DF 18046.16465028 .00003871 00000-0 16297-3 0 9993
L22 42049 97.4659 111.6890 0009600 68.4538 291.7721 15.23926690 54142

Live tracking and technical data element details for FLOCK 3P-31 (NORAD 42049). FLOCK 3P-31 can be tracked NOW for your location showing map with azimuth and elevation plus other details from your city location.

Track the satellite on the map from your city or location and see movement details for azimuth, elevation, latitude, longitude, range, height, and movement on the map or in text.







IsCatalogInMostPopularTable: catalog: 42049, numindb: 142
Update: records affected: 1



GetName: 42049 FLOCK 3P-31

Hit Count: updated at: Sun, 16 Dec 2018 09:57:15 GMT